EXPRESS-AT2

Last updated on Wed Sep 17 2025 00:02:48 GMT+0000 (Coordinated Universal Time)

1 39613U 14010B 25259.54434353 -.00000300 00000+0 00000+0 0 9994 2 39613 0.0145 234.1478 0000082 49.4448 47.9558 1.00272715 41756
UTC large
Height (km)
Speed (km/s)
/
Latitude / Longitude
Inclination (degrees)
Orbital Period (minutes)
Azimuth
Elevation
Range (km)
Doppler Factor

Next 0 passes for location: London (51.5072 / 0.1276)

Sorry there are no passes over London.